This demonstration page uses our WeatherBlox Daily Observations layout. Learn more.

Left ArrowRight Arrow

Hourly Observations for November 12, 2018

Temp ( °F °C ) Dew Point ( °F °C ) Humidity (%) Winds ( mph kmh ) Pressure ( in mb ) Visibility ( mi km ) Precip ( " mm )
12:53 am 00:53 Clear 27 -2.8 23 -5 85 85 N N/A 30.31 1027 10 16 N/A
1:53 am 01:53 Cloudy 28 -2.2 24 -4.4 85 85 N N/A 30.31 1026 10 16 N/A
2:53 am 02:53 Mostly Cloudy 28 -2.2 24 -4.4 85 85 N N/A 30.32 1027 10 16 N/A
3:53 am 03:53 Mostly Cloudy 28 -2.2 24 -4.4 85 85 N N/A 30.31 1026 9 14 N/A
4:53 am 04:53 Mostly Cloudy 29 -1.7 26 -3.3 89 89 NNW 3 6 30.30 1026 10 16 N/A
5:53 am 05:53 Mostly Cloudy 29 -1.7 26 -3.3 89 89 N N/A 30.31 1026 9 14 N/A
6:53 am 06:53 Mostly Cloudy 28 -2.2 25 -3.9 88 88 N N/A 30.32 1027 10 16 N/A
7:53 am 07:53 Mostly Sunny 30 -1.1 27 -2.8 88 88 N N/A 30.32 1027 8 13 N/A
8:53 am 08:53 Cloudy 33 0.6 29 -1.7 85 85 N N/A 30.31 1026 10 16 N/A
9:53 am 09:53 Cloudy 36 2.2 29 -1.7 76 76 N 5 7 30.29 1026 10 16 N/A
10:53 am 10:53 Cloudy 38 3.3 30 -1.1 73 73 NE 3 6 30.27 1025 10 16 N/A
11:53 am 11:53 Cloudy 41 5 29 -1.7 62 62 N 3 6 30.27 1025 10 16 N/A
12:53 pm 12:53 Cloudy 43 6.1 29 -1.7 58 58 NE 3 6 30.27 1025 10 16 N/A
1:53 pm 13:53 Cloudy 44 6.7 30 -1.1 58 58 E 7 11 30.24 1024 10 16 N/A
2:53 pm 14:53 Cloudy 45 7.2 28 -2.2 52 52 ESE 7 11 30.23 1024 10 16 N/A
3:53 pm 15:53 Cloudy 44 6.7 28 -2.2 53 53 ESE 5 7 30.22 1024 10 16 N/A
4:53 pm 16:53 Cloudy 44 6.7 29 -1.7 55 55 E 5 7 30.19 1023 10 16 N/A
5:53 pm 17:53 Cloudy 42 5.6 29 -1.7 60 60 N N/A 30.21 1023 10 16 N/A
6:53 pm 18:53 Cloudy 42 5.6 30 -1.1 62 62 ENE 3 6 30.21 1023 10 16 N/A
7:53 pm 19:53 Cloudy 42 5.6 29 -1.7 60 60 N N/A 30.21 1023 10 16 N/A
8:53 pm 20:53 Cloudy with Light Rain 41 5 31 -0.6 67 67 N N/A 30.21 1023 10 16 N/A
9:53 pm 21:53 Cloudy with Light Rain 40 4.4 28 -2.2 63 63 N 8 13 30.22 1023 10 16 N/A
10:53 pm 22:53 Cloudy 39 3.9 31 -0.6 73 73 N 5 7 30.22 1024 10 16 N/A
11:35 pm 23:35 Cloudy with Light Rain 36 2.2 32 undefined 86 86 NNW 8 13 30.24 1024 7 11 N/A
11:53 pm 23:53 Cloudy with Light Rain 36 2.2 32 undefined 86 86 N 7 11 30.23 1024 5 8 N/A

Powered by AerisWeather